Weather History for West Plains, MO

Change the Weather History Date:

Tuesday, December 4, 2012

  Actual Average Record
Temperature  
Mean Temperature 49 °F 39 °F  
Max Temperature 61 °F 49 °F 73 °F (1998)
Min Temperature 37 °F 29 °F 13 °F (1991)
Degree Days  
Heating Degree Days 16 26  
Month to date heating degree days 25 102  
Since 1 July heating degree days 969 954  
Cooling Degree Days 0 0  
Month to date cooling degree days 0 0  
Year to date cooling degree days 1739 1354  
Moisture  
Dew Point 48 °F    
Average Humidity 84    
Maximum Humidity 100    
Minimum Humidity 55    
Precipitation  
Precipitation 0.32 in 0.16 in 1.48 in (1977)
Month to date precipitation 0.32 0.64  
Year to date precipitation 30.24 43.22  
Sea Level Pressure  
Sea Level Pressure 30.13 in    
Wind  
Wind Speed 6 mph (NNW)    
Max Wind Speed 17 mph    
Max Gust Speed 23 mph    
Visibility 8 miles    
Events Rain , Thunderstorm    
T = Trace of Precipitation, MM = Missing Value Source: NWS Daily Summary

Daily Weather History Graph

Daily Weather History Graph

Search for Another Location

Airport:

Trip Planner

Search our weather history database for the weather conditions in past years. The results will help you decide how hot, cold, wet, or windy it might be!

Date:

Astronomy

Dec. 04, 2012 Rise Set
Actual Time 7:05 AM CST 4:50 PM CST
Civil Twilight 6:36 AM CST 5:19 PM CST
Nautical Twilight 6:04 AM CST 5:51 PM CST
Astronomical Twilight 5:32 AM CST 6:23 PM CST
Moon 10:33 PM CST (12/4) 11:04 AM CST (12/4)
Length of Visible Light 10h 43m
Length of Day
9h 45m
Waning Gibbous, 69% of the Moon is Illuminated
Dec 4
Waning Gibbous
Dec 6
Last Quarter
Dec 13
New
Dec 19
First Quarter
Dec 28
Full

Hourly Weather History & Observations

Time (CST) Temp. Windchill Dew Point Humidity Pressure Visibility Wind Dir Wind Speed Gust Speed Precip Events Conditions
12:53 AM 60.1 °F - 55.0 °F 83% 29.97 in 10.0 mi South 5.8 mph - N/A   Clear
1:53 AM 60.1 °F - 55.9 °F 86% 29.98 in 10.0 mi South 6.9 mph - N/A   Clear
2:53 AM 60.1 °F - 57.0 °F 90% 29.99 in 10.0 mi SW 3.5 mph - N/A   Mostly Cloudy
3:02 AM 60.8 °F - 57.2 °F 88% 30.03 in 10.0 mi WNW 6.9 mph - N/A   Mostly Cloudy
3:19 AM 60.8 °F - 57.2 °F 88% 30.03 in 3.0 mi West 5.8 mph - 0.07 in Rain Light Rain
3:53 AM 60.1 °F - 57.0 °F 90% 30.00 in 10.0 mi West 3.5 mph - 0.07 in   Overcast
4:53 AM 57.9 °F - 55.9 °F 93% 30.02 in 7.0 mi Calm Calm - 0.02 in Rain Light Rain
5:53 AM 57.9 °F - 57.0 °F 97% 30.03 in 6.0 mi West 3.5 mph - 0.02 in Rain Light Rain
6:11 AM 57.2 °F - 57.2 °F 100% 30.07 in 7.0 mi West 6.9 mph - 0.01 in Rain Light Rain
6:29 AM 57.2 °F - 57.2 °F 100% 30.07 in 7.0 mi WNW 5.8 mph - 0.01 in   Overcast
6:49 AM 57.2 °F - 57.2 °F 100% 30.09 in 5.0 mi WSW 3.5 mph - 0.03 in Rain Light Rain
6:53 AM 57.9 °F - 57.0 °F 97% 30.06 in 4.0 mi Calm Calm - 0.04 in Rain Rain
7:00 AM 57.2 °F - 55.4 °F 94% 30.08 in 3.0 mi Calm Calm - 0.02 in Rain , Thunderstorm Thunderstorms and Rain
7:10 AM 57.2 °F - 55.4 °F 94% 30.08 in 3.0 mi East 3.5 mph - 0.06 in Rain , Thunderstorm Thunderstorms and Rain
7:31 AM 57.2 °F - 55.4 °F 94% 30.04 in 3.0 mi East 9.2 mph - 0.13 in Rain Rain
7:50 AM 57.2 °F - 55.4 °F 94% 30.10 in 5.0 mi WNW 6.9 mph - 0.14 in Rain Light Rain
7:53 AM 57.9 °F - 55.9 °F 93% 30.08 in 5.0 mi WNW 5.8 mph - 0.14 in Rain Light Rain
8:12 AM 57.2 °F - 55.4 °F 94% 30.12 in 7.0 mi West 5.8 mph - 0.01 in Rain Light Rain
8:35 AM 55.4 °F - 53.6 °F 94% 30.12 in 9.0 mi NNW 11.5 mph 20.7 mph 0.02 in Rain Light Rain
8:53 AM 53.1 °F - 51.1 °F 93% 30.14 in 10.0 mi NW 10.4 mph - 0.03 in Rain Light Rain
9:25 AM 51.8 °F - 48.2 °F 88% 30.13 in 10.0 mi North 4.6 mph - 0.00 in   Overcast
9:45 AM 51.8 °F - 48.2 °F 88% 30.15 in 10.0 mi NNW 10.4 mph - 0.00 in   Overcast
9:53 AM 52.0 °F - 48.9 °F 89% 30.15 in 10.0 mi NNW 10.4 mph - 0.00 in   Overcast
10:36 AM 51.8 °F - 48.2 °F 88% 30.15 in 7.0 mi North 9.2 mph 17.3 mph N/A   Overcast
10:53 AM 50.0 °F - 48.0 °F 93% 30.16 in 7.0 mi North 12.7 mph 19.6 mph N/A   Overcast
11:15 AM 50.0 °F - 46.4 °F 87% 30.16 in 10.0 mi North 11.5 mph - N/A   Overcast
11:49 AM 50.0 °F - 46.4 °F 87% 30.15 in 10.0 mi North 9.2 mph - N/A   Overcast
12:53 PM 51.1 °F - 46.0 °F 83% 30.16 in 10.0 mi North 5.8 mph - N/A   Overcast
1:53 PM 52.0 °F - 43.0 °F 71% 30.16 in 10.0 mi North 9.2 mph - N/A   Mostly Cloudy
2:53 PM 53.1 °F - 39.9 °F 61% 30.19 in 10.0 mi North 9.2 mph - N/A   Clear
3:53 PM 54.0 °F - 37.9 °F 55% 30.20 in 10.0 mi NNE 8.1 mph - N/A   Clear
4:53 PM 50.0 °F - 35.1 °F 57% 30.23 in 10.0 mi North 8.1 mph - N/A   Clear
5:53 PM 46.9 °F - 34.0 °F 61% 30.24 in 10.0 mi North 5.8 mph - N/A   Clear
6:53 PM 45.0 °F 42.6 °F 33.1 °F 63% 30.25 in 10.0 mi North 4.6 mph - N/A   Clear
7:53 PM 45.0 °F 41.2 °F 32.0 °F 60% 30.27 in 10.0 mi North 6.9 mph - N/A   Clear
8:53 PM 44.1 °F 42.5 °F 32.0 °F 63% 30.30 in 10.0 mi North 3.5 mph - N/A   Clear
9:53 PM 42.1 °F 39.2 °F 32.0 °F 67% 30.32 in 10.0 mi North 4.6 mph - N/A   Clear
10:53 PM 39.9 °F - 32.0 °F 73% 30.32 in 10.0 mi Calm Calm - N/A   Clear
11:53 PM 39.9 °F 37.8 °F 32.0 °F 73% 30.32 in 10.0 mi North 3.5 mph - N/A   Clear